User: anonymous
Location: Vancouver
(49.2500°N, 123.1330°W)
Time: 01:03:51
(UTC-07:00)
Language:

H-2A R/B - Orbit

View from above orbital plane
View from above orbital plane
View from above satellite
View from above satellite

Ground track
Ground track

The orbit data is extracted from the following two-line orbital elements,

1 27601U 02056E   14203.83261225  .00000065  00000-0  39381-4 0  1393
2 27601 098.4817 285.6684 0072698 192.9147 275.9982 14.31387725606093
Epoch (UTC): 22 July 2014 19:58:57
Eccentricity: 0.0072698
inclination: 98.4817°
perigee height: 735 km
apogee height: 839 km
right ascension of ascending node: 285.6684°
argument of perigee: 192.9147°
revolutions per day: 14.31387725
mean anomaly at epoch: 275.9982°
orbit number at epoch: 60609

The dashed part of the orbit path shows where the satellite is in the earth's shadow,  

DLR